This is the latest recevied weather packets stored in our database for station/object DL1NER. If no packets are shown the sender has not sent any weather packets the latest 10 day(s).
| Time | Temp. | Humidity | Pressure | Rain* | Wind** | Luminosity | Snow |
|---|---|---|---|---|---|---|---|
| 1778053213 | 14.44° C | 80% | 1006.4 hPa | 0 mm | - | 0 W/m² | - |
| 1778052613 | 14.44° C | 81% | 1006.3 hPa | 0 mm | - | 0 W/m² | - |
| 1778052013 | 14.44° C | 81% | 1006.2 hPa | 0 mm | - | 0 W/m² | - |
| 1778051413 | 14.44° C | 81% | 1006.2 hPa | 0 mm | - | 0 W/m² | - |
| 1778050813 | 14.44° C | 83% | 1006.2 hPa | 0 mm | - | 0 W/m² | - |
| 1778050213 | 13.89° C | 84% | 1006.2 hPa | 0 mm | - | 0 W/m² | - |
| 1778049613 | 13.33° C | 88% | 1006.2 hPa | 0 mm | - | 0 W/m² | - |
| 1778049013 | 12.22° C | 91% | 1006.1 hPa | 0 mm | - | 0 W/m² | - |
| 1778048413 | 11.67° C | 91% | 1006.3 hPa | 0 mm | - | 0 W/m² | - |
| 1778047813 | 11.67° C | 92% | 1006.2 hPa | 0 mm | - | 0 W/m² | - |
| 1778047212 | 11.11° C | 91% | 1006.3 hPa | 0 mm | - | 0 W/m² | - |
| 1778046613 | 11.11° C | 92% | 1006.4 hPa | 0 mm | - | 0 W/m² | - |
| 1778046012 | 10.56° C | 92% | 1006.4 hPa | 0 mm | - | 0 W/m² | - |
| 1778045412 | 10.56° C | 92% | 1006.6 hPa | 0 mm | - | 0 W/m² | - |
| 1778044812 | 10.56° C | 92% | 1006.6 hPa | 0 mm | - | 0 W/m² | - |
| 1778044212 | 10° C | 92% | 1006.7 hPa | 0 mm | - | 0 W/m² | - |
| 1778043612 | 10° C | 92% | 1006.8 hPa | 0 mm | - | 0 W/m² | - |
| 1778043012 | 9.44° C | 92% | 1006.9 hPa | 0 mm | - | 0 W/m² | - |
| 1778042412 | 9.44° C | 92% | 1006.8 hPa | 0 mm | - | 0 W/m² | - |
| 1778041812 | 9.44° C | 91% | 1006.7 hPa | 0 mm | - | 0 W/m² | - |
| 1778041212 | 9.44° C | 91% | 1006.6 hPa | 0 mm | - | 0 W/m² | - |
| 1778040612 | 9.44° C | 91% | 1006.6 hPa | 0 mm | - | 0 W/m² | - |
| 1778040012 | 9.44° C | 91% | 1006.6 hPa | 0 mm | - | 0 W/m² | - |
| 1778039412 | 9.44° C | 91% | 1006.5 hPa | 0 mm | - | 0 W/m² | - |
| 1778038812 | 9.44° C | 91% | 1006.5 hPa | 0 mm | - | 0 W/m² | - |
* Rain latest hour (hover to see other rain measurements)
** Current wind speed in m/s (hover to see current wind gust speed)